This demonstration page uses our WeatherBlox Daily Observations layout. Learn more.

Left ArrowRight Arrow

41.12389, -100.76542

Hourly Observations for February 18, 2023

Temp ( °F °C ) Dew Point ( °F °C ) Humidity (%) Winds ( mph kmh ) Pressure ( in mb ) Visibility ( mi km ) Precip ( " mm )
12:53 am 00:53 Clear 23 -5 18 -7.8 81 81 Calm 30.15 1021 10 16 0.00 0.00
1:53 am 01:53 Clear 22 -5.6 17 -8.3 81 81 Calm 30.12 1020 10 16 0.00 0.00
2:53 am 02:53 Clear 22 -5.6 18 -7.8 84 84 Calm 30.09 1019 10 16 0.00 0.00
3:53 am 03:53 Clear 21 -6.1 17 -8.3 84 84 NW 5 7 30.07 1018 10 16 0.00 0.00
4:53 am 04:53 Clear 21 -6.1 17 -8.3 84 84 Calm 30.05 1018 7 11 0.00 0.00
5:53 am 05:53 Clear 21 -6.1 17 -8.3 84 84 Calm 30.03 1017 10 16 0.00 0.00
6:53 am 06:53 Clear 20 -6.7 16 -8.9 84 84 NW 6 9 30.04 1017 9 14 0.00 0.00
7:53 am 07:53 Sunny with Mist and Fog 22 -5.6 18 -7.8 84 84 WNW 6 9 30.02 1017 6 10 0.00 0.00
8:53 am 08:53 Sunny with Mist and Fog 24 -4.4 20 -6.7 84 84 SW 5 7 30.02 1017 5 8 0.00 0.00
9:53 am 09:53 Sunny with Mist and Fog 27 -2.8 23 -5 85 85 Calm 29.99 1016 5 8 0.00 0.00
10:53 am 10:53 Hazy 33 0.6 27 -2.8 78 78 WNW 5 7 29.99 1016 6 10 0.00 0.00
11:53 am 11:53 Sunny 38 3.3 28 -2.2 67 67 W 3 6 29.92 1013 9 14 0.00 0.00
12:53 pm 12:53 Sunny 42 5.6 29 -1.7 59 59 NW 3 6 29.88 1012 10 16 0.00 0.00
1:53 pm 13:53 Sunny 45 7.2 27 -2.8 49 49 WSW 3 6 29.84 1010 10 16 0.00 0.00
2:53 pm 14:53 Sunny 47 8.3 30 -1.1 51 51 W 6 9 29.81 1009 10 16 0.00 0.00
3:53 pm 15:53 Sunny 45 7.2 31 -0.6 58 58 SW 3 6 29.80 1009 10 16 0.00 0.00
4:53 pm 16:53 Sunny 42 5.6 29 -1.7 59 59 W 9 15 29.79 1009 10 16 0.00 0.00
5:53 pm 17:53 Sunny 39 3.9 27 -2.8 62 62 WSW 6 9 29.80 1009 10 16 0.00 0.00
6:53 pm 18:53 Clear 35 1.7 27 -2.8 72 72 SSW 6 9 29.82 1010 10 16 0.00 0.00
7:53 pm 19:53 Clear 32 0 25 -3.9 75 75 Calm 29.83 1010 10 16 0.00 0.00
8:53 pm 20:53 Clear 29 -1.7 23 -5 78 78 NNW 3 6 29.83 1010 10 16 0.00 0.00
9:53 pm 21:53 Clear 27 -2.8 21 -6.1 78 78 Calm 29.84 1011 9 14 0.00 0.00
10:53 pm 22:53 Clear 24 -4.4 20 -6.7 84 84 NW 7 11 29.85 1011 7 11 0.00 0.00
11:53 pm 23:53 Clear 26 -3.3 22 -5.6 84 84 NW 7 11 29.86 1011 7 11 0.00 0.00

Powered by AerisWeather